Theta_e
331 331 336 337 338 340 340 340 339 340 339 338 339 338 337 335 335 333 332 332 332 333 336 337 337 338 338 338 338 337 337 337 336 336 336 335 334 335 335 334 335 336 336 336 336 336 337 338 338 338 338 338 338 338 337 336 336 336 336 334 332 329 324 322 318 322 333 336 339 339 338 339 340 338 337 338 337 336 336 335 332 332 334 334 334
327 331 335 336 338 339 340 340 339 340 339 339 338 338 339 337 336 335 334 334 333 333 335 336 337 337 337 338 338 338 337 337 337 336 336 336 336 336 335 335 336 337 337 337 337 337 337 337 337 338 338 338 338 337 337 336 336 337 337 336 335 332 325 323 319 317 327 334 336 337 339 339 338 337 337 339 338 337 336 334 333 334 335 333 331
326 331 333 334 337 338 339 339 339 340 339 338 337 338 339 338 337 336 335 335 334 333 335 335 337 338 338 339 338 338 337 337 337 336 336 336 336 336 335 336 337 338 338 337 337 337 337 337 337 337 336 337 336 336 336 336 336 337 337 336 334 330 326 324 321 316 320 330 335 334 335 336 337 337 339 339 337 337 337 336 335 334 332 329 326
327 331 331 333 335 337 338 338 338 338 339 338 337 338 337 338 337 337 335 334 335 335 336 335 337 339 338 339 339 338 337 337 337 337 336 336 336 336 336 336 337 337 338 337 337 337 337 337 337 336 335 335 336 335 335 336 336 335 335 334 331 328 327 326 324 321 318 324 332 334 334 336 338 339 340 339 335 335 336 334 333 331 329 327 324
327 330 330 333 333 335 336 336 337 337 338 338 339 338 338 338 336 337 335 335 336 337 338 338 338 339 339 339 339 338 338 338 337 337 336 337 336 336 337 336 337 337 338 338 338 338 337 337 336 334 333 334 335 335 335 335 335 334 333 331 330 329 327 326 325 325 322 321 325 332 335 336 338 340 340 338 335 333 333 333 331 331 331 329 326
326 329 330 332 333 334 335 335 336 337 337 337 338 338 338 338 337 337 336 337 338 338 338 338 339 338 339 339 338 338 337 337 336 336 336 336 335 336 336 336 337 337 337 337 337 337 336 336 335 333 332 332 333 334 333 333 333 332 332 330 330 329 327 326 326 326 326 323 322 326 333 336 336 338 340 339 337 335 335 334 331 331 332 329 327
326 328 332 331 331 332 334 336 336 337 336 337 337 337 338 338 338 337 337 338 338 339 338 338 338 338 338 338 338 338 337 336 335 335 334 334 334 334 335 335 336 337 337 337 336 335 335 335 334 332 331 331 332 332 332 332 331 331 330 329 329 328 328 327 327 327 326 326 324 323 327 333 336 336 338 339 338 337 336 335 333 330 330 329 326
327 330 332 330 331 331 335 335 336 336 335 337 336 337 337 337 338 337 337 338 338 338 338 338 338 337 337 337 337 337 336 335 334 333 332 332 332 333 334 334 334 335 335 335 335 334 334 334 332 331 331 331 331 331 330 330 329 328 328 327 327 327 327 327 326 326 326 326 327 325 323 328 334 335 336 338 338 338 337 337 336 331 329 328 325
329 331 332 331 330 331 334 335 335 336 335 336 336 337 337 337 337 337 338 337 337 337 337 338 337 336 336 335 335 335 335 333 333 332 331 330 330 331 331 331 332 332 332 334 332 331 333 332 331 330 330 329 328 328 327 327 326 325 324 324 323 322 321 321 321 321 323 324 326 327 325 324 328 333 335 336 336 337 337 337 336 333 330 329 326
330 332 332 332 330 331 333 334 335 335 335 336 336 336 337 337 337 337 338 337 337 337 336 336 336 335 334 334 334 333 333 331 331 329 329 329 330 330 329 329 330 331 331 331 330 329 330 329 327 326 325 324 322 321 320 319 318 317 317 315 313 311 310 310 311 312 314 318 322 325 326 325 324 326 332 334 335 335 335 335 334 334 334 332 330
331 332 332 332 331 331 332 333 333 333 335 335 335 335 336 336 336 337 336 336 336 336 335 335 334 333 333 333 332 332 331 329 328 326 327 328 328 328 328 329 329 329 329 329 327 326 325 323 321 319 315 313 311 309 308 307 306 306 305 304 303 302 301 301 302 303 306 310 316 321 323 325 325 325 329 332 334 334 334 335 334 335 336 334 332
332 332 332 332 331 331 332 332 332 333 334 333 334 333 335 335 334 335 334 335 334 334 334 333 332 332 332 331 330 330 328 326 326 324 325 326 325 324 325 327 327 326 326 326 324 322 319 316 311 308 305 303 301 300 300 300 299 299 299 299 299 299 299 299 299 300 302 304 309 315 319 322 325 327 329 332 333 333 334 335 335 336 336 335 333
330 331 330 331 329 330 329 330 331 332 332 331 332 331 332 333 332 333 332 332 332 332 331 330 330 330 329 328 328 327 326 325 323 324 324 323 320 319 320 322 323 323 323 322 320 316 311 306 303 300 299 299 298 298 298 298 298 299 298 298 298 299 299 299 299 299 300 302 304 310 315 320 324 327 329 331 331 331 332 334 335 335 336 336 334
328 328 327 327 326 327 326 327 328 329 331 330 330 330 331 331 331 331 331 330 330 330 329 329 328 328 328 326 326 325 324 323 323 323 320 316 312 311 311 314 316 317 317 315 312 307 302 300 299 298 298 298 298 298 298 298 298 298 298 298 298 299 300 300 300 301 301 301 303 306 312 317 322 325 328 330 330 330 331 332 333 334 335 335 335
327 327 326 326 325 324 325 325 326 327 329 330 330 330 330 330 330 330 330 330 329 329 328 327 327 327 326 325 325 324 323 322 322 318 313 308 305 304 303 305 307 309 308 306 303 300 299 299 298 298 298 298 298 298 298 298 298 298 298 298 298 298 298 299 300 302 302 303 303 305 310 315 319 323 326 327 328 328 329 330 331 332 333 333 333
327 327 327 326 325 324 324 325 325 326 328 329 330 330 329 329 330 329 329 329 328 328 327 326 325 325 325 324 323 322 322 320 316 311 306 304 302 300 300 300 300 301 300 299 299 298 298 297 297 297 297 297 297 297 297 297 297 298 298 297 297 297 297 297 298 299 302 304 306 306 309 313 317 320 323 325 326 326 327 328 328 329 331 331 331
328 327 326 325 324 324 324 325 325 325 327 327 328 329 328 328 329 328 328 328 327 327 325 325 324 324 324 322 321 322 320 314 309 306 305 303 301 300 298 298 298 298 297 298 297 297 297 297 297 297 297 297 297 297 297 297 297 297 297 297 297 297 297 297 297 297 298 301 305 308 310 312 314 318 321 323 324 324 324 326 326 327 328 329 329
327 326 326 325 324 323 323 324 324 325 325 325 326 327 327 328 327 327 327 327 326 326 324 324 323 323 322 319 320 320 315 308 306 305 304 301 300 299 298 298 297 297 297 297 297 297 297 297 297 297 297 297 297 297 297 297 297 297 297 297 297 297 297 297 297 297 297 297 300 305 310 312 313 315 318 320 322 322 322 323 324 325 325 326 327
326 326 325 325 324 323 322 322 323 324 324 324 325 324 325 325 325 326 326 326 325 325 324 323 323 322 320 317 316 315 309 305 304 303 301 299 298 298 298 297 297 297 297 297 297 297 298 298 298 298 298 297 298 297 297 297 297 297 297 297 297 297 297 297 297 297 297 297 296 298 304 309 312 314 316 318 319 319 319 320 321 322 322 322 323
325 325 325 325 324 323 322 322 321 322 323 323 322 321 322 323 324 324 324 325 324 323 323 322 321 318 315 312 311 307 304 303 302 300 299 298 298 298 297 297 297 297 297 297 297 297 298 298 298 298 298 298 298 298 298 298 297 297 297 297 297 297 297 297 297 297 297 297 297 297 298 302 306 311 314 316 316 316 316 316 317 318 319 319 320
324 325 325 325 324 323 323 322 321 321 321 321 320 320 321 323 323 324 323 323 322 322 322 320 317 313 309 308 305 303 301 300 299 299 298 298 298 298 297 297 297 297 297 297 297 298 298 298 298 298 298 298 298 298 298 298 297 297 297 297 297 297 297 297 297 297 297 297 297 297 297 298 300 306 310 312 313 313 313 313 314 314 316 317 317
323 324 324 325 324 323 322 322 321 320 319 320 319 319 320 322 322 322 322 321 320 320 319 316 311 307 306 304 302 301 299 298 298 298 298 298 298 297 297 297 297 298 298 298 298 298 298 298 298 298 298 298 298 298 297 297 297 297 297 297 297 297 297 296 297 296 297 297 297 297 297 298 298 302 307 310 312 311 309 310 310 312 313 313 314
321 323 324 324 323 323 322 321 320 320 319 319 318 317 319 320 320 319 319 319 318 316 314 310 306 304 303 301 301 299 298 298 298 297 297 297 297 297 297 298 298 298 298 298 298 298 298 298 298 298 298 298 297 297 297 296 296 296 296 296 296 296 296 296 296 296 296 296 297 297 296 297 297 300 304 308 311 310 310 311 311 313 314 314 315
320 322 322 323 323 322 321 320 320 319 318 318 317 316 316 317 317 316 315 314 312 310 307 305 303 302 301 300 299 298 297 297 297 297 297 297 297 297 297 298 298 298 298 298 298 298 298 298 298 298 297 297 296 296 296 296 296 296 295 296 296 295 296 296 296 296 296 296 296 296 296 296 296 298 301 305 308 308 310 313 313 315 316 316 317
319 319 320 321 322 321 320 319 319 318 317 317 316 314 314 315 314 313 310 308 306 305 304 302 302 301 300 299 298 297 297 297 297 297 297 297 297 297 297 297 297 297 297 297 297 298 298 298 297 297 297 296 296 296 295 295 295 295 295 295 295 295 295 295 295 295 295 295 295 295 295 295 295 296 298 303 306 307 310 313 313 315 316 316 317
315 317 319 320 321 320 320 319 318 317 316 316 315 314 313 312 311 309 307 304 303 302 301 301 300 300 299 298 297 297 296 297 297 297 297 297 297 297 297 296 296 297 297 297 297 297 297 298 297 297 297 296 296 295 295 295 295 295 295 295 295 294 294 295 295 295 295 295 295 295 295 295 295 295 296 300 303 305 310 312 313 314 315 315 316
314 316 317 318 319 319 319 318 317 317 316 315 314 314 312 310 309 307 304 302 301 300 300 299 299 299 298 297 297 296 297 297 297 297 297 296 296 296 296 296 296 296 296 296 297 297 297 297 297 297 296 296 295 295 295 295 295 294 294 294 294 294 294 294 294 294 295 295 295 295 295 295 295 295 295 298 302 305 309 311 313 314 315 315 316
312 313 314 316 317 318 318 317 317 316 315 315 314 314 312 310 307 305 303 301 300 299 298 298 298 298 297 296 296 297 297 297 297 297 296 296 296 296 296 296 295 296 296 296 297 297 297 297 296 296 296 295 295 295 295 294 294 294 294 294 294 294 294 294 294 294 294 294 294 294 294 294 294 295 294 297 303 307 309 311 313 314 314 315 315
310 311 312 314 315 316 317 317 317 316 315 315 314 313 312 310 307 304 302 300 299 299 298 298 297 297 296 296 296 296 297 297 297 297 296 296 295 296 295 295 295 296 296 296 296 296 296 296 295 295 295 295 295 294 294 294 294 294 294 294 294 294 294 294 294 294 294 294 294 294 294 294 294 294 295 297 303 307 309 311 312 313 313 313 314
309 309 310 312 313 313 315 316 316 316 315 314 314 313 312 310 307 304 301 300 299 298 298 297 297 296 296 296 296 296 297 297 297 297 296 296 295 295 295 295 295 295 296 295 295 295 295 295 295 295 295 294 294 294 294 294 294 294 294 294 294 294 293 293 293 293 293 293 293 294 294 294 295 295 296 297 301 305 308 310 310 311 311 312 312
308 307 308 310 311 312 314 315 315 315 314 314 313 313 312 311 307 304 301 300 299 298 297 297 296 296 296 296 296 296 297 297 297 297 296 296 295 295 295 295 295 295 295 295 295 294 295 295 295 294 294 294 294 294 294 293 294 294 293 293 293 293 293 293 293 293 293 293 294 294 294 295 295 295 296 296 298 301 305 307 308 309 309 309 310
307 307 308 307 308 310 311 313 314 314 314 314 313 312 312 311 308 304 301 300 298 298 297 296 296 296 296 296 296 297 297 297 297 297 296 296 295 295 295 295 295 295 294 294 294 294 294 294 294 294 294 294 294 294 294 294 294 293 293 293 293 293 293 293 292 292 293 294 294 294 295 295 295 295 295 296 296 296 299 302 304 306 306 307 309
308 308 307 306 307 308 309 310 312 313 313 313 313 312 311 311 309 305 302 300 298 297 297 296 296 296 296 296 296 296 296 297 297 296 296 295 295 295 294 295 295 294 294 293 293 293 294 294 294 294 294 294 294 294 294 294 293 293 293 293 293 292 292 292 292 293 294 294 295 295 295 295 295 295 295 295 295 294 294 295 297 299 301 304 307
308 307 306 307 307 307 307 308 309 311 312 312 312 312 311 310 309 306 303 300 298 297 297 297 296 296 295 295 295 296 296 296 296 296 295 295 295 294 294 294 294 293 293 293 293 293 293 293 294 294 294 294 294 294 294 294 293 293 293 293 293 292 292 292 292 294 294 294 294 295 295 295 295 294 294 294 293 294 293 293 293 294 294 297 303
307 306 307 308 307 305 306 306 307 309 310 311 311 311 311 310 309 307 304 301 298 297 297 297 296 296 295 295 295 295 296 296 296 296 295 295 295 294 294 294 293 293 292 292 292 292 293 293 293 294 294 294 294 294 294 294 293 293 293 293 293 292 292 291 293 294 293 292 292 293 294 294 294 293 293 293 293 293 294 293 292 291 291 291 298
307 307 307 307 306 305 305 305 306 306 308 309 310 310 309 308 308 307 304 302 299 297 297 297 296 296 295 295 295 295 296 296 297 297 296 295 295 294 294 293 293 292 292 292 292 292 293 293 293 293 293 293 293 294 294 294 293 293 293 293 293 293 292 291 293 293 291 291 292 292 293 293 293 292 292 292 292 293 293 292 290 290 290 290 294
307 307 307 306 306 305 305 305 305 306 306 307 308 308 307 307 306 305 304 302 299 297 297 296 296 295 295 295 295 296 296 297 297 297 296 295 294 294 293 292 292 291 291 291 292 292 292 293 293 293 293 293 294 294 294 293 293 293 293 293 293 292 291 292 293 292 291 291 291 292 292 292 292 291 290 290 291 292 291 290 289 289 289 290 291
307 306 306 306 306 305 304 304 304 305 305 305 306 306 305 305 304 303 302 301 299 297 296 296 296 295 295 295 295 296 296 296 297 297 296 295 294 294 293 292 291 291 291 291 291 291 291 292 293 293 293 293 293 293 293 293 293 293 293 293 292 292 291 292 293 292 291 290 290 291 292 292 291 290 289 290 290 290 290 289 289 289 289 289 289
307 306 306 306 306 305 304 304 304 303 303 304 304 304 303 302 302 301 300 299 298 297 296 296 296 295 295 295 295 295 296 296 296 296 295 295 294 293 293 291 291 291 290 290 291 291 291 291 292 293 293 292 292 293 292 293 293 292 293 293 292 291 291 292 292 291 290 290 290 290 291 290 290 289 289 289 289 289 289 288 288 288 288 288 289
307 306 305 305 305 305 304 304 303 302 302 302 302 302 301 300 299 298 298 297 297 296 296 296 296 296 296 296 296 295 296 296 296 296 294 294 295 293 292 291 291 290 290 290 291 291 292 291 291 292 292 292 291 292 292 293 293 292 292 292 291 291 291 291 291 290 290 289 289 289 290 289 289 289 289 288 288 288 288 288 287 287 288 288 288
305 305 305 305 305 305 304 303 302 301 301 301 301 301 300 300 298 298 298 298 297 296 296 296 297 297 296 296 295 295 295 295 295 295 294 295 295 294 292 291 291 290 290 291 291 291 291 291 291 291 292 292 291 291 292 293 293 292 291 291 290 290 291 291 290 290 290 289 289 289 289 289 289 288 288 288 288 288 288 287 287 287 287 287 288
305 305 305 305 305 304 304 303 302 301 301 301 301 301 301 301 300 299 299 298 297 297 297 297 297 296 296 296 295 295 295 295 295 295 294 295 296 295 293 291 291 290 290 290 290 290 290 291 291 291 291 291 291 291 292 293 293 292 291 292 292 290 290 291 291 290 289 289 289 289 289 289 288 288 288 288 287 287 287 287 287 287 287 287 287
305 305 305 304 304 304 303 303 302 301 301 301 301 301 301 300 300 299 299 298 297 297 297 297 296 296 295 295 295 295 294 294 294 294 295 295 296 295 293 291 291 290 290 290 290 290 290 290 291 292 292 291 291 291 292 293 292 291 291 293 295 293 291 290 290 290 289 289 288 288 289 288 288 287 287 287 287 287 287 287 287 287 287 287 287
305 304 304 303 303 304 303 302 302 301 301 300 300 300 300 299 299 299 298 298 297 297 297 296 296 295 295 295 295 295 294 294 294 294 294 295 296 296 293 291 291 290 290 290 290 290 290 291 290 292 293 292 291 290 290 292 292 293 293 293 290 291 294 291 288 289 289 288 288 288 288 288 288 287 287 287 287 286 287 287 287 287 287 286 286
304 304 304 304 304 304 303 303 302 301 301 300 300 299 299 298 298 298 297 297 297 296 296 296 295 295 295 296 296 296 296 295 295 294 294 294 295 296 294 291 291 290 290 290 290 290 290 291 291 292 293 293 292 290 289 290 292 293 294 294 291 293 298 292 287 289 289 288 289 288 288 288 288 287 287 287 286 286 286 287 287 287 286 286 286
305 306 305 305 304 304 303 302 301 301 300 300 299 299 299 298 297 297 296 296 295 295 296 295 295 296 297 297 297 297 297 297 296 295 295 294 295 295 294 291 290 290 290 289 290 290 290 291 291 292 292 293 293 292 290 289 290 291 291 294 293 294 296 290 290 292 288 287 288 288 287 288 288 287 286 286 285 285 286 287 287 286 286 286 286
306 306 305 304 304 303 302 302 301 300 300 299 299 299 298 298 298 297 297 296 296 296 296 296 297 298 297 297 297 297 297 297 297 296 295 294 294 294 294 291 290 290 289 289 289 290 291 291 291 291 292 292 293 293 291 289 289 288 289 290 290 290 290 290 292 294 291 289 287 287 287 288 288 286 286 286 285 285 286 286 286 286 286 286 285
304 304 303 303 302 302 302 301 301 300 299 299 299 298 298 298 297 297 297 297 297 296 296 296 297 297 296 296 296 297 297 297 296 296 295 294 294 294 294 291 290 290 289 289 289 290 290 290 290 290 290 291 293 293 292 291 290 288 287 288 288 288 288 288 289 290 294 295 290 288 288 287 287 286 286 286 284 285 286 286 286 286 286 285 285
302 302 301 302 301 301 301 301 300 299 299 299 298 298 298 298 297 297 297 297 297 297 296 296 296 295 295 295 295 295 295 295 296 296 295 294 294 293 293 291 290 290 289 289 289 289 289 290 290 289 290 290 291 292 292 292 291 290 289 287 286 287 286 286 286 285 289 294 295 293 288 285 287 286 285 285 284 285 285 285 286 286 286 285 285
301 301 301 301 301 301 301 300 300 299 298 298 298 298 298 298 297 297 297 297 297 296 296 295 295 295 295 294 294 294 294 294 295 295 295 294 293 292 292 291 290 289 289 289 288 289 289 289 289 290 290 290 290 291 291 291 291 290 290 289 287 286 285 285 285 284 285 287 291 291 285 284 286 285 284 284 284 285 285 285 286 285 285 285 285
299 300 300 300 300 300 300 299 299 298 298 298 298 298 297 297 297 297 297 297 297 296 296 295 295 294 294 294 294 294 294 294 294 294 294 293 293 292 291 291 290 289 289 289 288 289 289 289 289 289 289 290 290 290 290 289 289 289 289 289 289 289 288 288 286 285 285 285 288 288 284 283 284 283 284 284 283 284 285 285 285 285 285 285 285
Wind_Speed
26 24 24 25 22 20 20 19 19 18 17 16 15 14 13 12 11 11 12 13 12 11 10 10 9 8 8 7 7 8 8 8 8 8 8 8 8 8 7 7 5 4 4 4 3 3 4 5 5 5 5 6 7 7 8 8 8 8 8 8 8 8 7 8 9 10 11 12 12 12 10 10 8 8 8 5 5 7 7 8 9 9 10 10 9
31 28 25 26 23 21 20 19 19 18 18 17 16 15 14 14 12 12 12 12 11 11 9 9 8 8 7 7 7 6 7 7 7 7 7 7 7 7 7 6 5 4 3 4 3 4 4 5 5 5 5 6 6 7 7 6 6 6 6 6 5 6 8 8 9 9 9 9 10 10 9 8 7 7 7 5 6 7 8 9 9 10 11 11 10
31 29 26 26 24 21 20 19 19 18 18 18 18 17 16 15 15 14 13 12 11 11 10 9 9 9 8 8 8 7 7 7 7 7 7 7 7 7 7 6 5 5 4 3 4 5 4 5 6 5 5 6 5 5 5 4 4 4 4 3 3 5 8 8 9 8 8 7 8 8 7 7 6 6 6 6 7 7 8 9 9 10 10 10 10
30 30 26 26 24 21 19 18 18 17 17 18 19 18 18 17 16 16 15 14 13 12 12 11 11 11 10 10 9 9 8 8 8 8 8 7 8 7 8 7 6 6 5 4 4 5 5 5 6 5 5 5 4 3 3 2 2 1 1 1 2 5 7 7 7 8 7 7 6 6 6 7 7 7 7 7 7 8 8 9 9 10 11 11 9
32 29 26 26 23 22 19 18 17 17 17 17 17 17 18 18 18 16 16 15 14 14 13 12 12 12 11 11 10 10 10 10 9 8 8 8 8 7 7 7 6 6 6 6 5 5 5 4 5 4 3 3 2 2 2 1 1 1 1 1 2 4 4 4 5 5 5 6 5 4 4 7 8 8 8 7 7 8 9 9 9 9 11 12 10
32 29 27 26 24 23 19 18 17 17 17 16 16 16 17 17 17 17 16 16 15 15 14 13 12 12 12 12 11 11 11 10 10 8 8 7 8 7 7 7 7 7 6 7 7 6 5 4 4 3 1 1 1 1 1 2 2 2 3 4 4 5 5 4 4 3 3 3 4 3 2 4 6 7 8 7 5 7 8 8 7 8 9 11 10
31 30 27 27 25 23 21 19 17 16 17 17 17 16 17 17 17 17 17 16 16 15 15 14 13 13 12 12 12 11 10 9 8 7 7 7 8 8 8 8 7 8 7 8 8 6 6 5 5 3 2 3 2 3 3 3 3 4 5 6 7 7 7 6 6 5 4 3 2 2 1 1 3 4 6 8 5 4 5 6 6 6 8 10 10
31 30 28 27 25 24 22 20 17 17 17 17 17 16 17 17 17 17 16 16 16 15 15 15 13 13 12 11 11 10 9 8 7 7 7 8 8 8 8 8 8 8 7 7 6 5 7 6 5 4 4 5 4 4 5 5 6 6 7 8 9 9 9 8 8 7 6 5 3 2 1 1 1 2 3 7 7 3 3 4 6 6 6 8 9
31 30 29 28 26 25 24 22 19 17 18 17 17 17 17 17 17 16 16 15 15 15 14 14 13 12 12 11 10 10 9 9 7 7 8 8 8 9 9 8 8 7 6 9 6 4 7 7 6 6 6 6 6 6 7 7 8 8 9 9 9 9 9 9 9 8 7 6 4 3 2 1 1 2 0 4 6 4 3 3 5 7 7 7 7
31 31 29 28 27 26 25 24 20 18 18 18 18 19 18 18 17 16 16 16 15 15 15 14 13 13 12 12 12 10 10 10 9 9 9 8 8 9 9 8 7 7 7 10 6 5 7 6 6 6 6 7 7 7 7 8 8 9 9 9 9 9 9 8 8 8 7 6 5 4 3 2 2 2 1 2 5 6 5 3 4 5 6 6 6
31 31 30 28 27 26 26 25 21 20 19 18 20 20 18 17 17 16 16 16 16 16 16 15 14 14 13 13 13 11 11 12 11 10 10 9 9 10 9 7 8 8 10 11 8 7 7 5 6 5 6 6 6 6 6 7 7 7 8 8 7 7 7 7 7 6 5 5 5 5 4 3 2 1 1 3 5 5 5 5 4 4 4 4 6
30 30 30 28 27 26 27 25 22 20 20 19 20 20 18 17 17 17 16 17 16 16 16 16 16 16 15 15 14 13 13 13 12 11 10 10 11 12 11 9 10 11 11 10 9 7 6 5 5 5 5 5 5 5 5 5 5 5 4 5 5 5 5 4 5 4 4 3 3 4 3 3 3 3 3 5 5 3 4 5 5 3 3 4 7
31 30 29 28 27 26 26 26 23 21 20 20 20 19 18 18 19 18 18 18 17 18 17 17 17 16 16 15 15 15 15 14 13 12 11 11 12 12 13 13 13 12 11 10 9 7 5 5 5 5 5 4 3 3 2 1 1 2 2 3 3 3 3 3 3 2 2 2 2 2 3 3 4 5 6 6 5 2 2 3 5 4 2 4 6
30 30 29 28 27 26 26 26 25 21 20 21 20 20 20 20 19 19 19 19 19 19 18 17 18 17 17 16 16 16 15 14 13 13 13 13 12 12 13 13 13 12 12 10 9 7 6 6 5 4 3 3 2 2 2 2 2 3 3 3 4 4 4 3 3 1 1 0 1 2 4 4 5 6 6 6 5 3 2 2 4 4 3 5 6
29 29 28 27 27 26 26 27 26 23 21 21 20 20 20 19 20 20 20 19 20 19 19 18 18 18 17 17 17 16 15 14 14 14 14 13 13 13 13 13 13 13 11 10 8 8 7 6 5 5 4 4 4 4 4 3 3 4 4 4 4 4 5 4 4 2 1 2 2 3 4 5 6 6 5 6 7 3 1 1 2 1 2 5 8
27 27 27 27 26 27 27 27 27 25 23 22 21 20 20 20 20 20 20 19 19 19 18 18 17 17 17 17 16 15 14 14 14 14 14 13 13 13 14 14 13 12 11 10 9 9 8 7 6 6 5 5 4 4 3 3 3 3 3 4 4 4 5 5 4 3 3 2 3 3 4 5 6 5 5 7 8 3 1 0 1 0 0 2 4
27 26 26 27 27 27 28 28 28 26 25 23 22 22 21 21 21 20 20 19 19 19 18 18 17 17 16 16 16 14 14 15 14 14 14 14 14 14 13 13 13 12 12 11 10 10 9 8 7 6 5 4 4 3 3 2 2 2 2 3 3 3 4 4 4 4 4 3 3 3 4 4 5 5 4 7 7 4 1 2 2 2 2 3 5
27 27 27 27 28 28 29 29 28 28 27 25 24 24 23 23 23 21 21 21 21 20 19 18 18 17 16 16 16 15 15 16 15 14 15 14 14 14 13 13 13 13 12 11 10 9 8 7 6 5 4 3 3 2 2 2 2 2 2 2 2 3 3 3 3 3 3 3 3 2 4 4 4 3 2 4 5 3 2 3 3 4 4 5 7
28 28 28 28 29 29 29 29 29 29 28 27 27 27 25 25 24 23 23 23 23 21 20 19 19 18 17 18 17 17 17 17 16 16 16 15 15 15 14 14 13 13 12 11 9 8 7 6 5 3 2 2 1 1 2 2 2 2 3 3 3 3 3 3 3 3 2 2 2 2 3 4 4 3 2 1 2 3 3 4 4 5 6 6 7
28 29 30 30 30 30 30 30 30 29 28 28 28 28 27 27 25 24 24 25 24 23 21 21 21 19 19 20 19 19 19 18 18 18 17 16 16 16 15 15 14 13 12 11 10 9 7 6 5 3 2 1 1 1 2 3 3 3 3 3 3 3 3 3 3 3 3 2 1 1 2 3 4 3 2 1 2 3 4 4 5 6 7 7 8
30 31 32 32 31 31 31 31 31 30 29 29 29 29 28 28 27 26 26 26 25 24 22 22 22 22 22 22 21 21 21 20 19 18 18 17 17 17 16 16 15 14 13 12 10 9 8 6 5 4 3 3 2 2 3 3 4 4 4 4 4 4 4 4 4 4 3 3 2 1 1 2 3 3 2 2 2 3 3 4 5 6 7 8 8
31 33 34 34 34 33 32 32 32 31 30 30 30 30 29 29 29 28 28 27 25 24 24 24 24 24 24 23 22 21 21 20 19 19 18 18 18 18 17 17 15 14 13 11 10 9 8 7 6 5 4 3 3 3 3 3 4 4 4 4 4 4 4 3 3 3 3 3 2 2 0 0 1 2 2 3 4 3 3 3 3 4 5 6 6
32 36 38 37 36 35 34 34 33 33 32 31 32 31 31 30 30 29 28 27 26 26 26 26 25 25 24 23 22 21 20 19 19 19 19 19 19 18 17 16 15 14 12 11 10 9 8 7 6 5 5 4 3 3 3 3 4 4 4 4 4 3 3 3 3 3 3 3 3 2 1 1 1 0 2 3 5 5 5 6 5 6 6 5 5
38 39 39 38 38 38 37 36 35 34 33 33 33 33 32 32 31 30 30 29 28 28 27 27 26 26 25 23 22 21 20 20 20 20 20 19 19 18 17 15 14 13 12 11 10 10 9 8 7 6 5 4 3 3 3 3 3 3 3 3 2 2 2 2 2 3 3 3 3 3 2 2 1 1 1 3 4 5 7 8 8 8 8 7 8
37 36 38 41 41 41 39 38 37 36 35 35 35 35 34 34 33 32 31 30 30 29 28 28 27 26 25 24 23 22 22 22 22 22 21 20 19 18 16 15 14 14 13 12 11 11 10 8 7 6 5 4 4 3 3 3 3 2 2 1 1 1 1 2 2 3 3 4 4 4 4 3 2 1 1 3 4 4 7 9 9 9 8 8 9
31 34 39 42 42 42 41 39 38 38 37 37 37 36 36 36 35 34 33 32 31 30 29 29 28 27 26 25 25 25 24 24 24 23 22 20 19 18 17 16 16 15 15 14 13 12 10 9 8 7 6 5 4 4 3 3 2 2 1 0 1 2 2 3 4 4 4 5 5 5 5 4 3 2 1 2 3 4 8 9 9 9 9 9 9
33 37 40 40 41 43 43 42 41 40 39 38 38 37 37 37 36 35 34 34 33 32 31 30 29 28 27 27 27 27 27 26 25 24 23 21 20 19 19 18 18 17 16 15 14 12 11 10 8 7 6 6 5 4 4 3 3 2 1 1 2 3 4 4 5 5 5 5 5 5 5 4 3 2 2 3 4 6 8 10 10 10 10 10 10
33 37 38 39 42 44 44 44 43 43 41 40 39 39 39 39 38 37 36 35 34 33 32 31 30 29 28 29 29 29 28 27 26 25 24 23 22 21 21 20 19 19 18 16 14 13 12 10 9 8 7 6 6 5 5 4 3 2 1 2 3 4 5 5 6 6 6 6 5 5 4 3 3 2 2 4 7 8 10 11 11 12 11 11 11
35 39 37 40 43 44 45 46 46 45 43 42 41 41 41 40 40 39 38 36 35 34 32 31 31 30 30 30 30 30 29 28 27 26 25 24 23 23 22 22 21 20 18 17 15 13 12 11 10 9 8 7 6 5 5 4 2 2 1 2 3 4 5 6 6 6 6 6 5 4 3 3 3 3 4 5 8 10 11 12 12 12 12 12 12
41 39 38 42 42 41 44 47 48 46 45 44 44 44 43 43 43 41 40 38 37 35 33 32 32 31 31 31 31 30 29 28 28 27 26 25 25 25 24 23 22 21 19 17 16 14 12 11 10 9 8 7 6 5 5 4 2 1 1 2 3 4 6 7 7 7 6 5 4 3 3 4 5 7 7 8 9 10 12 13 12 11 11 11 11
40 37 41 42 40 41 44 46 47 47 46 46 46 46 45 45 45 43 41 40 38 36 34 34 33 33 33 32 32 31 29 29 28 28 27 26 26 26 25 24 23 21 19 17 16 14 12 11 9 8 8 7 6 5 4 3 2 1 1 2 3 5 6 7 7 6 6 4 4 4 6 7 9 10 10 10 11 11 12 13 13 12 11 11 10
39 42 43 39 40 43 44 45 47 47 48 49 48 48 48 47 46 45 43 41 39 37 36 35 35 34 33 33 33 32 31 29 29 29 28 28 28 27 27 25 24 22 20 18 16 15 14 12 11 10 9 8 7 6 4 3 2 0 1 2 3 5 6 6 6 5 4 4 5 7 9 10 11 11 11 11 11 11 11 11 11 12 12 12 11
42 44 40 38 43 44 44 44 45 47 49 50 50 49 49 48 48 47 45 43 41 39 38 37 36 35 35 35 34 33 32 31 30 30 29 29 29 28 28 26 24 22 21 19 18 16 15 13 12 11 10 9 7 6 4 3 2 0 1 3 3 4 6 5 5 4 5 6 8 9 10 11 12 11 10 10 9 9 10 10 10 10 10 11 12
41 38 37 42 45 43 43 44 45 48 49 50 50 50 50 49 49 48 47 45 43 41 40 38 37 37 36 36 36 35 34 33 32 31 31 30 30 29 29 27 25 24 22 21 19 17 15 14 13 12 11 9 7 6 4 3 2 0 1 3 3 4 5 4 4 5 8 8 8 9 10 11 10 10 10 9 8 9 10 10 10 9 9 9 12
38 36 41 44 43 42 43 44 46 48 49 50 51 51 51 50 50 49 48 47 45 43 42 40 39 38 38 37 37 36 35 34 34 33 32 32 31 31 30 28 27 25 23 21 20 18 16 15 14 12 11 10 8 6 5 3 2 0 2 3 4 4 3 3 4 8 9 9 8 8 9 9 10 10 11 11 10 10 10 10 10 10 9 8 10
38 40 42 40 40 42 43 44 46 47 49 51 51 50 49 48 49 49 49 48 46 45 44 42 41 40 39 38 38 37 36 36 35 35 34 33 32 31 30 29 28 26 24 22 21 19 18 16 15 13 11 10 8 6 5 3 1 1 2 3 4 4 2 2 6 9 10 10 10 10 11 10 11 11 11 11 10 10 9 9 9 10 9 8 9
37 39 39 38 40 41 42 44 45 47 49 49 48 47 46 47 47 47 47 47 46 46 44 43 42 41 40 39 39 38 37 37 36 36 35 34 33 31 31 30 29 27 25 23 22 20 19 17 15 14 12 10 8 6 5 3 1 2 3 4 4 2 2 5 9 9 9 10 12 13 13 12 12 11 11 10 10 9 8 8 9 10 9 9 10
36 36 37 39 40 40 42 44 45 45 46 46 46 45 44 44 43 44 45 45 45 45 44 44 43 42 41 40 40 39 39 38 37 37 36 35 33 31 31 31 30 27 26 24 23 21 20 18 16 15 13 10 9 7 5 3 1 2 3 3 3 1 5 8 9 10 9 10 13 13 13 12 11 11 10 10 10 9 8 8 9 9 10 10 9
35 35 36 38 38 38 40 42 44 44 44 44 43 42 40 40 40 40 41 42 43 44 44 44 44 43 42 41 41 41 41 40 39 38 37 36 34 32 32 32 31 28 27 26 24 23 22 20 17 15 14 12 10 7 6 3 2 3 3 2 2 4 9 10 10 11 11 12 13 13 12 11 10 11 10 9 9 8 8 9 10 10 10 10 10
34 34 35 36 38 38 39 42 43 43 41 40 39 39 38 38 37 37 39 41 43 44 45 46 45 45 44 43 43 42 42 42 41 40 38 37 35 32 32 33 32 30 29 28 27 25 23 21 19 17 15 13 11 8 6 3 3 5 5 4 5 7 12 13 14 13 13 13 12 10 9 9 9 10 10 10 8 8 8 8 10 10 9 10 10
30 32 33 36 39 39 40 41 41 41 41 41 41 41 42 40 39 40 44 44 44 44 46 47 47 47 46 45 45 44 43 43 42 40 39 37 35 33 33 34 33 32 30 29 27 25 23 22 20 18 16 14 11 8 6 4 4 5 6 7 9 9 13 12 14 13 11 10 11 11 10 10 9 9 9 9 9 9 8 7 8 8 8 9 10
28 31 34 37 38 39 41 41 40 41 44 45 45 45 47 46 44 46 46 44 44 46 47 49 49 47 47 46 45 45 44 44 42 40 39 38 36 35 35 35 35 33 31 29 27 26 25 24 22 21 17 14 11 9 7 5 5 5 6 6 8 7 9 9 6 6 7 7 8 11 12 11 10 10 9 9 9 9 8 7 6 6 7 9 11
27 30 33 35 36 38 40 39 40 42 45 45 46 46 46 44 41 40 39 37 39 43 43 44 46 45 45 45 45 45 44 43 42 41 40 39 38 37 36 36 36 35 34 31 29 28 28 26 24 21 18 16 12 10 9 7 8 8 7 4 2 3 3 3 5 3 2 8 7 8 8 8 10 9 8 9 10 9 8 7 5 6 7 9 11
25 27 30 33 35 38 40 40 40 42 44 44 44 42 39 37 34 31 31 32 33 36 36 37 41 42 42 43 44 44 44 43 42 41 40 40 39 38 37 37 38 37 36 34 33 32 30 28 26 22 19 18 14 10 10 9 9 8 6 4 2 2 1 1 1 4 1 9 8 5 3 2 5 7 5 8 12 11 8 6 5 6 8 9 10
25 28 30 33 36 39 40 41 41 42 43 43 43 39 35 34 31 25 25 26 26 29 32 34 36 38 40 43 44 44 44 43 42 42 42 41 40 39 38 38 39 38 38 36 35 34 32 29 27 24 21 19 16 13 12 11 9 9 7 5 3 2 3 3 1 1 5 9 7 4 4 4 1 6 5 6 13 13 8 7 7 8 10 10 10
27 29 31 34 36 37 38 39 39 40 41 42 42 41 38 37 35 31 29 29 27 31 38 39 39 42 45 47 46 46 45 44 44 44 43 42 41 41 40 39 40 40 39 37 36 34 32 30 27 25 22 19 18 16 16 14 11 11 11 9 6 4 5 5 3 1 3 4 6 6 5 5 3 7 6 5 12 12 8 9 9 10 11 10 9
26 27 28 31 32 32 33 36 37 38 39 40 42 42 41 40 41 39 37 35 34 37 42 42 44 47 47 47 48 47 46 46 46 44 43 43 42 41 41 40 40 40 40 38 37 35 33 30 28 26 23 20 20 19 19 18 14 12 12 11 10 9 8 7 4 3 1 3 5 5 5 6 5 8 4 4 12 11 9 10 10 11 10 9 8
21 20 22 26 27 27 29 32 35 36 37 39 42 44 43 42 42 40 37 38 36 35 36 39 42 43 42 43 45 46 46 46 45 44 43 43 42 42 41 41 40 40 40 39 37 35 33 31 29 26 24 22 21 20 21 21 17 15 14 12 11 11 11 9 7 5 3 2 3 3 5 6 6 3 2 6 11 9 9 10 10 11 9 8 7
15 15 17 20 22 23 25 28 31 33 34 37 40 43 43 42 42 39 36 35 32 29 31 34 36 36 37 38 40 42 44 44 44 44 43 42 42 42 42 41 41 40 40 39 38 36 34 32 30 29 26 24 22 19 20 21 20 18 18 15 13 12 11 9 8 7 5 3 3 3 3 5 4 1 1 6 10 7 8 10 10 10 9 7 6
9 9 11 13 17 20 22 25 28 29 31 35 38 40 40 39 39 39 36 32 29 27 27 30 32 34 35 36 37 39 41 42 43 43 43 43 43 42 42 41 41 40 40 40 39 37 35 33 31 29 28 26 24 21 20 20 19 19 19 18 17 15 10 7 9 10 5 3 2 3 5 5 3 4 4 5 8 6 9 10 10 9 7 6 5
6 4 6 9 13 17 21 23 26 27 29 32 35 37 37 37 38 38 37 34 31 30 29 31 32 33 34 35 37 38 39 41 42 42 43 43 43 43 42 41 41 40 40 40 40 38 36 34 32 30 28 27 26 24 22 20 19 20 20 19 19 17 12 8 13 16 10 5 4 2 6 7 8 9 5 4 6 6 10 10 9 8 6 6 5
Wind_Direction
188 182 184 181 180 176 178 180 179 180 180 182 180 181 179 181 181 180 177 174 175 174 175 172 171 171 170 167 163 161 159 157 156 161 160 165 168 170 173 170 162 156 149 139 138 123 101 96 88 83 77 74 71 62 55 49 47 41 35 32 36 44 55 58 55 60 64 68 68 70 73 80 79 66 60 62 75 72 68 61 57 54 49 47 44
185 180 185 183 183 179 180 182 181 181 181 183 184 187 185 186 185 187 186 183 181 177 181 179 175 174 174 170 169 167 162 159 157 160 161 165 169 173 175 176 171 164 148 135 130 117 110 112 107 101 94 85 79 71 66 59 59 56 49 41 37 47 58 62 59 59 62 68 71 76 82 84 82 75 69 70 74 72 68 58 54 50 43 37 33
180 178 184 183 183 179 180 182 183 183 182 184 186 189 188 189 187 189 192 191 185 180 182 181 180 178 178 174 171 168 164 161 157 156 157 160 161 164 165 169 163 148 138 131 128 124 122 124 119 119 117 99 90 89 85 81 81 75 66 44 27 45 54 59 60 57 57 63 66 72 80 76 70 65 71 81 72 68 66 55 48 41 33 27 22
178 178 182 183 182 179 180 182 184 184 183 185 187 190 191 192 190 190 191 191 188 185 183 182 184 181 180 178 173 169 168 163 157 158 155 151 150 153 155 157 152 144 142 135 130 136 136 129 122 122 125 109 103 108 106 110 117 123 121 351 10 41 48 49 51 51 51 54 56 60 66 65 63 57 67 84 72 61 57 48 42 35 27 21 22
179 178 180 183 182 181 182 182 184 186 185 186 188 190 191 193 192 190 189 188 188 187 185 184 184 181 178 175 173 170 168 162 158 159 148 140 144 147 147 149 146 142 141 138 132 140 147 146 146 139 133 119 116 128 143 179 205 239 272 321 356 17 22 24 28 34 39 44 46 51 60 64 65 61 65 81 81 63 46 41 41 35 24 18 22
180 179 180 183 183 182 182 182 184 187 188 189 190 191 191 191 190 189 187 186 186 186 184 183 181 178 175 173 175 171 167 162 161 157 143 140 149 146 143 145 135 131 134 135 133 149 171 174 192 197 182 214 247 250 265 267 273 293 313 323 325 324 328 336 341 348 3 22 35 49 64 67 71 69 62 64 84 78 49 33 31 25 17 13 16
181 181 181 184 184 182 180 181 184 187 190 191 192 193 191 189 187 187 186 185 185 185 183 180 179 176 173 173 173 168 166 166 161 152 150 153 158 153 151 149 136 131 128 134 135 156 188 194 212 226 243 267 274 274 281 279 281 293 301 303 304 303 306 308 307 310 313 325 354 32 53 80 81 80 65 46 45 92 68 32 18 12 6 2 4
182 183 183 185 185 182 179 180 184 188 192 193 191 190 188 187 184 184 184 184 184 183 181 178 176 175 174 175 172 170 172 176 166 158 168 168 166 163 158 151 147 141 134 167 172 171 204 214 220 234 254 263 264 266 270 271 277 281 284 287 288 290 291 292 293 294 294 296 295 315 357 206 122 103 72 41 30 58 66 29 8 360 354 350 352
184 185 185 185 186 185 182 180 183 188 191 192 189 187 185 184 181 180 181 180 183 182 180 178 177 179 181 181 182 182 181 185 178 175 182 176 171 167 167 166 164 151 154 194 189 174 216 226 230 239 249 252 253 257 262 266 270 272 275 278 281 285 285 285 285 283 281 278 271 265 254 216 213 202 146 30 26 27 35 20 2 357 352 348 350
185 186 187 187 187 188 186 183 183 187 190 191 190 188 186 186 182 181 182 181 184 186 184 184 183 186 187 186 191 188 186 196 195 188 185 180 175 173 178 177 166 157 174 196 187 192 222 228 237 244 245 245 245 249 253 257 260 265 269 275 280 284 285 286 284 281 276 266 255 248 239 220 211 206 205 6 9 8 13 11 356 353 350 354 0
186 188 189 189 190 192 191 189 186 187 189 192 194 191 190 190 188 187 189 190 190 191 191 190 189 191 191 191 194 189 191 200 196 188 185 181 185 194 188 164 159 174 192 202 205 215 226 229 234 239 241 239 237 240 242 247 254 262 268 275 280 284 286 288 286 283 278 264 246 235 229 218 191 156 106 24 7 356 0 3 352 342 334 354 2
188 191 192 192 193 194 195 194 190 190 192 194 197 195 195 195 196 195 194 195 194 194 195 195 195 196 196 196 196 194 196 194 188 184 181 184 196 203 194 181 187 197 203 207 211 219 224 224 222 224 230 228 227 231 233 243 254 267 279 289 295 297 298 296 294 287 280 266 244 223 210 204 163 100 67 43 17 354 359 358 356 356 335 353 358
189 193 194 195 195 196 197 198 195 192 195 197 199 198 199 199 199 199 197 197 197 200 201 201 200 198 196 196 196 195 193 187 184 180 180 193 201 201 196 197 201 202 204 206 212 215 211 207 205 207 210 210 213 216 229 251 291 323 339 343 346 342 342 336 323 307 287 261 228 199 187 181 144 90 57 44 21 1 12 356 6 24 5 354 344
191 194 195 197 197 200 200 202 200 195 196 197 198 199 200 200 199 199 199 199 198 201 201 200 198 195 192 191 191 188 185 182 179 181 192 203 202 197 195 196 196 198 200 203 206 199 187 186 186 185 177 168 150 120 99 70 54 39 37 32 30 26 19 16 12 10 13 128 154 157 162 163 137 90 53 41 30 27 33 18 27 40 40 38 23
194 194 195 198 199 201 203 204 202 199 197 197 197 196 198 200 198 198 198 198 196 197 195 194 192 189 189 187 186 184 181 179 180 192 202 202 196 193 190 189 191 192 192 191 185 170 166 167 162 154 142 131 113 101 93 76 62 50 41 37 36 36 33 33 34 42 64 93 119 132 145 153 135 99 61 41 32 28 25 40 47 52 47 54 51
199 198 198 199 200 202 203 204 203 201 199 197 194 195 198 197 197 196 196 195 192 193 192 191 190 187 187 185 185 184 181 183 191 199 198 191 187 185 182 182 181 181 179 173 164 158 157 154 148 141 134 125 112 102 91 77 62 47 31 29 25 25 26 27 32 45 63 92 121 133 141 145 135 104 59 40 32 19 322 331 24 4 258 5 18
201 203 202 202 202 202 204 204 204 202 201 198 194 195 197 192 194 194 193 194 191 193 193 191 190 188 188 188 186 182 184 193 196 193 189 185 181 178 176 173 170 168 165 161 158 155 152 147 142 136 131 124 116 105 95 81 63 48 30 21 14 15 15 16 17 28 46 71 110 137 147 143 136 109 60 40 33 19 319 286 290 289 268 282 302
203 205 206 206 204 204 205 206 207 205 204 201 197 198 197 193 192 193 193 195 194 195 194 192 192 188 189 191 187 182 190 197 195 190 188 185 181 177 171 167 165 162 160 158 155 150 146 142 135 128 122 112 101 86 71 60 46 35 25 18 10 10 7 8 5 16 32 46 81 127 148 142 140 119 71 40 27 3 312 300 288 288 284 280 284
205 207 207 209 207 207 207 207 209 208 207 205 202 202 199 196 194 194 195 195 194 194 194 192 192 190 191 194 193 191 196 197 194 193 191 187 181 176 173 170 166 163 161 156 153 152 150 145 137 127 113 93 55 21 3 354 351 350 348 350 350 350 350 348 353 5 14 31 62 105 134 139 143 125 74 20 358 328 305 299 293 295 296 294 291
207 209 209 211 210 211 210 210 211 211 211 207 206 204 199 196 195 195 195 195 194 193 194 194 195 197 199 201 201 199 198 196 195 195 192 187 182 178 175 172 168 165 163 160 160 160 158 155 153 152 158 179 247 285 294 298 300 306 310 313 320 320 324 326 333 338 342 2 22 64 113 128 135 118 59 4 322 308 298 293 292 294 294 297 297
210 210 211 212 212 214 214 214 213 213 213 210 209 206 201 197 196 196 196 196 195 194 196 198 202 205 206 207 205 203 200 199 197 196 192 187 183 180 176 173 172 170 168 167 167 166 165 166 166 172 181 194 213 236 253 262 268 272 277 283 288 292 303 311 316 318 323 334 335 341 93 123 130 110 55 26 354 311 297 297 294 296 293 293 294
212 211 212 213 213 215 215 216 216 215 214 212 212 209 205 202 200 200 200 200 199 199 201 204 207 209 210 210 207 205 203 201 198 195 191 189 187 183 179 178 176 175 174 173 173 173 172 173 175 179 180 188 203 217 236 242 248 251 254 258 263 270 279 287 294 300 305 313 318 320 315 191 150 108 58 36 20 359 346 338 322 326 318 307 307
213 213 213 213 214 215 216 218 218 217 216 214 213 211 209 206 205 205 205 206 205 205 207 209 211 212 213 210 208 205 203 201 198 195 194 192 191 187 184 183 182 181 181 181 180 179 177 177 175 173 174 179 191 203 221 230 233 236 235 240 246 251 259 266 274 282 291 297 306 312 313 305 245 136 43 35 22 17 24 20 20 23 17 13 13
215 215 215 214 215 216 217 218 219 219 218 216 214 213 211 209 209 209 209 208 208 209 211 211 213 214 214 210 207 204 202 200 198 198 197 196 194 191 189 187 187 185 185 185 182 180 177 174 169 164 167 168 176 193 205 216 220 220 221 226 236 242 254 268 278 284 291 294 299 306 308 311 300 315 19 27 17 19 29 29 32 33 33 35 36
217 217 217 216 217 217 218 218 219 219 219 217 216 214 212 211 210 211 211 210 211 211 212 213 214 215 214 210 206 204 201 200 200 200 199 199 197 194 192 189 188 186 185 185 182 180 175 168 164 158 156 158 166 180 189 198 204 205 208 211 241 303 321 322 317 311 309 303 299 301 302 306 307 322 16 19 14 21 27 28 32 32 34 37 38
218 219 219 219 218 218 219 218 219 218 219 219 218 217 214 213 212 212 212 212 212 212 213 214 214 215 213 210 207 204 202 202 202 201 200 200 198 194 192 190 190 188 186 186 183 178 173 166 160 154 151 153 157 166 172 175 176 171 163 95 22 14 2 350 340 330 325 316 306 302 301 304 311 326 12 23 20 24 28 28 30 31 32 35 36
219 222 221 220 219 219 219 219 219 219 219 219 219 219 217 216 214 213 213 213 213 213 213 214 214 214 212 211 209 206 204 204 203 202 201 199 197 195 193 192 191 192 189 187 186 178 172 166 158 153 149 149 150 156 159 157 153 131 98 49 23 10 0 351 344 337 333 327 316 310 307 309 320 343 14 44 40 32 34 33 31 33 33 35 37
222 224 222 221 222 221 219 219 220 219 218 219 219 219 218 217 216 215 215 215 215 214 214 214 213 213 212 212 211 208 207 206 205 203 202 199 197 196 195 195 193 195 193 188 188 180 172 163 156 152 148 148 146 148 150 145 135 109 70 32 13 359 353 348 343 337 336 335 330 326 326 333 345 12 47 72 56 40 39 38 35 35 34 35 37
226 227 223 223 225 222 220 219 220 219 219 219 219 219 219 218 217 217 217 216 217 216 215 214 213 212 212 213 212 210 209 209 208 205 203 200 198 198 197 197 196 197 195 189 185 179 169 160 155 150 147 144 140 143 146 143 131 100 57 11 359 350 345 342 341 338 338 341 344 348 3 24 46 65 80 90 72 51 44 43 40 37 34 34 34
229 228 225 226 225 222 221 221 220 219 219 219 219 219 219 219 219 218 217 217 218 218 216 215 214 214 213 213 213 212 212 212 211 208 206 203 200 200 199 198 198 198 196 189 181 174 167 159 153 148 144 143 143 146 146 147 142 101 35 353 347 345 339 338 338 338 343 352 4 25 53 73 88 91 90 93 86 69 52 46 45 41 34 32 31
230 228 228 227 224 223 224 222 221 219 219 219 220 220 220 220 220 219 219 218 219 218 217 216 215 215 214 214 214 214 214 215 215 213 209 206 203 201 200 200 200 198 194 187 179 172 166 160 153 149 147 149 154 155 154 158 155 123 354 343 345 343 336 335 339 344 352 8 39 73 93 99 99 95 92 88 87 83 65 49 46 41 33 31 31
228 229 229 226 224 225 225 223 221 219 219 220 220 220 220 220 220 219 219 219 219 219 217 217 216 215 215 214 215 214 215 216 216 216 213 209 206 203 202 202 202 199 192 186 179 174 168 164 158 156 157 160 167 166 165 174 173 197 329 333 336 335 331 335 345 359 18 45 81 99 104 103 99 95 91 87 82 82 74 59 50 43 37 36 34
229 231 228 225 228 227 224 222 221 219 219 220 220 220 221 220 220 220 220 219 219 220 218 218 217 216 215 215 215 215 215 216 217 218 216 213 208 206 204 204 203 198 192 185 181 177 171 168 165 163 165 168 173 171 174 186 190 226 317 322 324 325 327 338 355 30 65 81 94 103 104 101 97 91 85 83 77 73 71 66 60 52 48 43 34
231 228 226 228 229 225 222 221 220 220 220 219 219 219 220 220 220 220 220 220 219 220 219 219 218 217 216 215 216 216 216 217 217 218 217 214 211 208 207 206 203 198 193 186 182 179 173 171 171 170 170 171 175 174 180 192 193 242 327 321 318 319 326 345 24 76 84 84 93 99 99 97 92 82 75 75 72 69 68 66 61 54 52 48 36
230 226 228 230 228 223 221 221 220 220 219 219 219 219 219 219 220 220 220 220 220 220 219 219 218 217 217 216 216 217 217 217 217 218 217 216 212 210 208 206 203 199 193 187 183 181 177 175 175 175 174 174 176 177 182 192 193 346 348 336 323 319 330 7 84 100 82 74 87 95 97 94 84 79 77 76 74 71 68 61 53 44 41 49 43
231 229 230 228 226 224 222 220 219 219 219 219 219 218 218 218 219 220 220 220 219 219 220 219 219 218 218 217 217 217 217 217 217 218 218 217 214 212 210 206 204 200 193 189 186 183 181 179 178 178 179 177 178 181 183 189 175 42 6 348 334 322 346 84 119 108 81 73 83 92 97 94 87 84 80 76 75 74 67 54 42 35 38 50 50
237 233 229 226 224 223 220 220 220 220 219 217 217 216 216 217 218 219 219 219 219 219 219 219 219 218 218 218 218 218 218 218 218 219 219 218 216 213 210 207 205 200 194 191 188 185 184 183 182 179 181 184 182 184 184 182 139 38 12 351 338 336 91 121 128 111 89 86 87 91 97 94 90 83 76 76 79 79 70 51 40 36 39 45 45
243 237 231 229 226 222 220 220 220 220 218 216 215 215 215 215 217 218 219 219 219 219 219 219 219 218 218 218 219 219 219 219 219 219 219 218 216 214 210 207 206 201 196 194 190 187 185 185 186 182 181 186 186 185 185 181 137 58 27 5 359 74 119 123 124 114 105 98 90 92 97 93 84 75 72 75 77 74 63 53 47 44 41 39 36
245 240 233 229 226 223 221 220 219 218 216 214 212 211 211 212 214 216 218 219 218 218 218 219 219 219 219 220 220 220 220 220 220 220 218 217 215 213 211 208 207 203 198 196 193 189 186 185 188 187 182 183 186 184 177 171 127 87 50 33 52 106 123 118 115 114 108 103 99 97 97 91 79 71 68 66 65 60 57 56 50 43 41 39 35
244 238 232 226 223 221 219 218 217 214 212 209 206 204 205 207 209 211 214 216 217 216 217 219 219 220 220 220 220 220 221 220 220 219 218 216 214 212 210 208 208 205 201 199 196 192 189 186 186 188 186 180 179 178 168 150 125 107 86 75 83 122 130 112 103 105 101 99 100 98 93 90 85 74 64 59 55 49 55 56 41 36 41 44 44
239 233 228 223 221 219 216 215 213 210 206 203 202 200 200 201 202 206 211 213 213 213 215 217 219 220 220 220 220 220 220 220 219 219 217 215 214 212 210 209 209 207 204 202 198 195 191 189 186 185 186 179 171 170 163 146 128 116 108 91 84 124 149 130 103 89 89 98 90 90 96 96 92 77 63 54 48 49 54 48 34 35 42 47 52
233 229 225 223 220 217 216 214 210 206 206 205 203 202 203 202 202 206 209 209 209 209 212 215 216 218 219 218 218 219 219 219 219 218 216 215 214 213 211 209 210 208 206 204 201 197 193 190 188 185 182 177 171 164 162 153 135 124 124 104 76 105 158 172 151 64 75 121 98 89 98 91 80 72 66 51 46 50 42 37 39 42 50 56 58
234 231 227 223 218 216 215 213 208 206 206 206 204 204 206 205 205 207 207 206 207 209 211 213 214 216 216 216 217 217 218 218 219 218 217 216 216 215 212 210 211 209 206 203 201 200 196 192 191 190 183 173 166 161 164 163 148 130 111 105 72 88 111 193 217 326 71 155 138 103 101 84 72 67 68 55 44 40 32 43 61 58 69 70 65
235 232 226 220 216 216 215 211 209 208 206 205 205 205 205 204 206 209 206 205 208 209 210 213 215 215 215 215 216 216 217 218 219 219 218 217 218 217 214 211 211 211 208 205 202 201 198 195 192 193 189 176 164 159 167 169 161 150 118 98 91 113 143 250 254 327 165 165 161 131 89 50 62 52 61 55 37 34 45 68 76 78 92 85 74
237 233 228 223 220 218 216 212 209 207 205 204 202 201 200 198 198 200 199 201 204 204 206 211 212 212 214 214 215 216 217 219 220 220 219 218 218 217 215 213 212 212 210 207 204 202 200 198 194 193 194 188 175 164 165 169 169 171 162 142 114 128 213 216 81 9 166 173 198 231 298 296 338 16 23 45 32 35 62 80 88 103 105 95 86
242 241 235 229 225 221 217 212 208 206 204 202 199 197 196 194 191 189 188 190 193 199 204 206 205 209 213 214 215 215 216 217 219 219 219 218 218 217 216 214 214 213 212 209 207 205 202 200 198 196 196 193 184 172 167 170 171 174 177 179 183 190 181 163 145 169 187 209 225 231 264 263 288 352 357 35 30 36 69 82 93 111 107 97 95
251 250 241 234 229 223 217 211 208 206 203 200 197 195 194 194 194 195 194 194 196 203 206 206 206 210 212 212 213 213 214 215 216 217 217 218 218 217 216 215 215 214 213 211 209 208 206 202 200 198 197 194 188 180 173 171 169 170 180 182 179 178 170 161 160 162 211 233 201 200 239 255 299 336 347 37 27 37 81 90 96 110 108 101 98
267 261 246 238 232 226 220 214 210 207 203 200 197 196 195 195 197 199 202 203 204 207 206 205 208 209 208 209 210 210 211 213 214 215 216 217 217 217 217 216 216 216 215 213 211 209 208 204 200 198 197 196 194 189 181 178 177 173 172 172 170 170 172 174 174 157 127 175 228 249 246 261 300 343 63 32 21 41 89 94 103 112 111 108 103
281 270 252 243 233 227 223 215 211 208 204 200 198 198 198 197 198 200 204 208 210 211 207 204 206 206 206 207 208 208 208 210 212 214 215 216 217 217 217 216 216 216 216 216 213 211 210 207 202 199 198 196 195 195 191 187 188 185 176 170 163 158 161 167 174 170 142 150 236 270 274 295 319 337 319 6 19 54 99 96 107 116 113 115 111
296 276 254 241 231 223 218 213 211 208 205 202 200 200 200 200 200 201 204 207 208 209 207 203 204 204 204 205 206 207 207 207 210 212 214 215 216 217 217 216 216 216 216 216 215 213 212 210 206 203 201 197 194 195 196 194 194 193 189 183 170 157 152 155 173 177 161 151 188 253 283 301 314 301 298 349 19 66 111 105 113 123 122 126 128
329 284 238 225 221 216 211 209 208 207 206 204 202 202 202 203 204 204 205 205 203 203 200 199 201 201 201 202 204 206 207 207 208 210 212 214 215 216 217 217 217 217 217 216 216 215 213 211 209 206 203 201 199 196 195 196 196 194 194 196 190 183 184 187 188 184 176 167 150 198 257 262 275 280 278 332 7 87 116 111 119 127 131 142 146